Weather History for Mackinac Island, MI

Change the Weather History Date:

Thursday, May 1, 2014

  Actual Average Record
Temperature  
Mean Temperature 40 °F -  
Max Temperature 43 °F 52 °F 72 °F (2013)
Min Temperature 36 °F 36 °F 29 °F (1978)
Degree Days  
Heating Degree Days 26    
Moisture  
Dew Point 37 °F    
Average Humidity 97    
Maximum Humidity 100    
Minimum Humidity 88    
Precipitation  
Precipitation 0.01 in - - ()
Sea Level Pressure  
Sea Level Pressure 29.66 in    
Wind  
Wind Speed 10 mph (SW)    
Max Wind Speed 17 mph    
Max Gust Speed 24 mph    
Visibility 5 miles    
Events Fog , Rain , Snow    
Averages and records for this station are not official NWS values.
T = Trace of Precipitation, MM = Missing Value Source: NWS Daily Summary

Daily Weather History Graph

Daily Weather History Graph

Search for Another Location

Airport:

Trip Planner

Search our weather history database for the weather conditions in past years. The results will help you decide how hot, cold, wet, or windy it might be!

Date:

Astronomy

May. 01, 2014 Rise Set
Actual Time 6:25 AM EDT 8:46 PM EDT
Civil Twilight 5:52 AM EDT 9:19 PM EDT
Nautical Twilight 5:11 AM EDT 10:00 PM EDT
Astronomical Twilight 4:25 AM EDT 10:47 PM EDT
Moon 8:09 AM EDT (5/1) 11:22 PM EDT (5/1)
Length of Visible Light 15h 26m
Length of Day
14h 20m
Waxing Crescent, 6% of the Moon is Illuminated
May 1
Waxing Crescent
May 6
First Quarter
May 14
Full
May 21
Last Quarter
May 28
New

Hourly Weather History & Observations

Time (EDT) Temp. Windchill Dew Point Humidity Pressure Visibility Wind Dir Wind Speed Gust Speed Precip Events Conditions
12:17 AM 36.1 °F 27.3 °F 36.1 °F 100% 29.72 in 0.5 mi East 13.8 mph 21.9 mph N/A Fog Fog
12:36 AM 36.1 °F 26.5 °F 36.1 °F 100% 29.72 in 0.5 mi East 16.1 mph 21.9 mph N/A Snow Light Snow
12:57 AM 36.5 °F 27.0 °F 36.5 °F 100% 29.72 in 0.5 mi East 16.1 mph 24.2 mph N/A Fog Fog
1:17 AM 36.5 °F 26.7 °F 36.5 °F 100% 29.72 in 0.5 mi East 17.3 mph 21.9 mph N/A Fog Fog
1:36 AM 36.5 °F 27.8 °F 36.5 °F 100% 29.71 in 0.5 mi East 13.8 mph 19.6 mph N/A Fog Fog
1:57 AM 36.3 °F 26.8 °F 36.3 °F 100% 29.70 in 0.5 mi East 16.1 mph 21.9 mph N/A Fog Fog
2:17 AM 36.0 °F 28.0 °F 36.0 °F 100% 29.70 in 0.5 mi East 11.5 mph 20.7 mph N/A Snow Light Snow
2:36 AM 36.0 °F 27.5 °F 36.0 °F 100% 29.69 in 0.5 mi East 12.7 mph 17.3 mph N/A Snow Light Snow
2:57 AM 36.0 °F 28.0 °F 36.0 °F 100% 29.67 in 0.8 mi East 11.5 mph 17.3 mph N/A   Overcast
3:16 AM 36.0 °F 28.5 °F 36.0 °F 100% 29.67 in 0.8 mi ESE 10.4 mph - N/A   Overcast
3:36 AM 36.5 °F 29.7 °F 36.5 °F 100% 29.66 in 0.8 mi ESE 9.2 mph 17.3 mph N/A   Overcast
3:57 AM 36.7 °F 31.2 °F 36.7 °F 100% 29.67 in 1.2 mi ESE 6.9 mph - N/A   Overcast
4:16 AM 36.9 °F 31.4 °F 36.9 °F 100% 29.66 in 1.5 mi ESE 6.9 mph - N/A   Overcast
4:36 AM 36.9 °F 32.2 °F 36.9 °F 100% 29.66 in 1.5 mi SW 5.8 mph - N/A   Overcast
4:57 AM 37.6 °F 32.3 °F 37.6 °F 100% 29.66 in 3.0 mi SSW 6.9 mph - N/A   Overcast
5:16 AM 38.3 °F 33.2 °F 38.3 °F 100% 29.66 in 4.0 mi WSW 6.9 mph - N/A   Overcast
5:37 AM 38.1 °F 30.2 °F 38.1 °F 100% 29.66 in 3.0 mi WSW 12.7 mph 20.7 mph N/A   Overcast
5:57 AM 37.4 °F 30.8 °F 37.4 °F 100% 29.66 in 2.0 mi WSW 9.2 mph 18.4 mph N/A   Overcast
6:16 AM 36.7 °F 28.9 °F 36.7 °F 100% 29.65 in 2.0 mi WSW 11.5 mph - N/A   Overcast
6:37 AM 36.7 °F 29.4 °F 36.7 °F 100% 29.65 in 1.2 mi WSW 10.4 mph - N/A   Overcast
6:57 AM 36.5 °F 29.2 °F 36.5 °F 100% 29.65 in 0.8 mi SW 10.4 mph - N/A   Overcast
7:16 AM 36.9 °F 28.7 °F 36.9 °F 100% 29.66 in 1.0 mi SW 12.7 mph 16.1 mph N/A Snow Light Snow
7:37 AM 37.0 °F 29.8 °F 37.0 °F 100% 29.65 in 0.8 mi WSW 10.4 mph 17.3 mph N/A Snow Light Snow
7:57 AM 36.9 °F 29.1 °F 36.9 °F 100% 29.65 in 1.0 mi SW 11.5 mph 17.3 mph N/A   Overcast
8:16 AM 36.9 °F 29.1 °F 36.9 °F 100% 29.65 in 1.8 mi SW 11.5 mph 16.1 mph N/A   Overcast
8:37 AM 36.7 °F 29.4 °F 36.7 °F 100% 29.65 in 1.5 mi SW 10.4 mph 16.1 mph N/A   Overcast
8:56 AM 36.5 °F 28.7 °F 36.5 °F 100% 29.65 in 1.8 mi WSW 11.5 mph 16.1 mph N/A   Overcast
9:17 AM 36.5 °F 31.0 °F 36.5 °F 100% 29.65 in 1.2 mi SW 6.9 mph - N/A   Overcast
9:37 AM 36.7 °F 29.4 °F 36.7 °F 100% 29.64 in 1.2 mi WSW 10.4 mph - N/A   Overcast
10:17 AM 37.4 °F 30.8 °F 37.4 °F 100% 29.64 in 1.8 mi SW 9.2 mph - N/A   Light Drizzle
10:57 AM 37.9 °F 30.5 °F 37.9 °F 100% 29.64 in 2.5 mi WSW 11.5 mph 17.3 mph N/A Rain Light Rain
11:17 AM 37.4 °F 30.3 °F 37.4 °F 100% 29.64 in 2.0 mi WSW 10.4 mph 16.1 mph 0.01 in Rain Light Rain
11:36 AM 37.4 °F 30.3 °F 37.4 °F 100% 29.64 in 2.0 mi WSW 10.4 mph 17.3 mph 0.01 in   Overcast
11:57 AM 38.5 °F 34.1 °F 38.5 °F 100% 29.64 in 4.0 mi WSW 5.8 mph - 0.01 in   Overcast
12:16 PM 38.8 °F 33.8 °F 38.8 °F 100% 29.65 in 5.0 mi West 6.9 mph - N/A   Overcast
12:37 PM 39.6 °F 33.5 °F 39.6 °F 100% 29.64 in 5.0 mi WSW 9.2 mph - N/A   Overcast
12:57 PM 40.3 °F 36.3 °F 39.9 °F 99% 29.65 in 5.0 mi WSW 5.8 mph - N/A   Overcast
1:17 PM 39.9 °F 35.8 °F 39.4 °F 98% 29.64 in 5.0 mi WSW 5.8 mph - N/A   Overcast
1:37 PM 40.8 °F 35.0 °F 40.1 °F 97% 29.64 in 7.0 mi West 9.2 mph - N/A   Scattered Clouds
1:56 PM 40.6 °F 35.4 °F 39.4 °F 95% 29.64 in 7.0 mi West 8.1 mph - N/A   Scattered Clouds
2:17 PM 42.4 °F 36.1 °F 40.1 °F 91% 29.63 in 10.0 mi West 11.5 mph - N/A   Scattered Clouds
2:37 PM 42.3 °F 36.3 °F 39.7 °F 91% 29.64 in 10.0 mi West 10.4 mph - N/A   Mostly Cloudy
3:17 PM 41.0 °F 35.8 °F 38.5 °F 91% 29.64 in 10.0 mi West 8.1 mph - N/A   Overcast
3:37 PM 42.6 °F 37.8 °F 39.6 °F 89% 29.64 in 10.0 mi West 8.1 mph - N/A   Overcast
3:57 PM 42.1 °F 37.1 °F 39.2 °F 90% 29.64 in 10.0 mi West 8.1 mph - N/A   Overcast
4:17 PM 43.0 °F 39.5 °F 39.7 °F 88% 29.64 in 10.0 mi West 5.8 mph - N/A   Mostly Cloudy
4:36 PM 42.4 °F 37.5 °F 39.4 °F 89% 29.64 in 10.0 mi WSW 8.1 mph 16.1 mph N/A   Overcast
5:17 PM 42.8 °F 38.0 °F 39.6 °F 88% 29.64 in 10.0 mi West 8.1 mph - N/A   Scattered Clouds
5:37 PM 42.4 °F 38.8 °F 39.4 °F 89% 29.64 in 10.0 mi West 5.8 mph - N/A   Scattered Clouds
5:57 PM 40.8 °F 37.8 °F 38.3 °F 91% 29.64 in 10.0 mi WSW 4.6 mph - N/A   Scattered Clouds
6:17 PM 41.0 °F 38.0 °F 38.7 °F 91% 29.65 in 10.0 mi West 4.6 mph - N/A   Mostly Cloudy
6:37 PM 40.3 °F 37.1 °F 37.9 °F 91% 29.65 in 10.0 mi WSW 4.6 mph - N/A   Scattered Clouds
7:17 PM 39.4 °F 37.2 °F 37.4 °F 93% 29.65 in 10.0 mi WSW 3.5 mph - N/A   Scattered Clouds
7:37 PM 39.6 °F 37.4 °F 37.6 °F 93% 29.65 in 10.0 mi WSW 3.5 mph - N/A   Clear
7:57 PM 39.2 °F 35.9 °F 37.4 °F 93% 29.66 in 10.0 mi WSW 4.6 mph - N/A   Scattered Clouds
8:17 PM 38.3 °F 35.9 °F 36.9 °F 95% 29.66 in 10.0 mi SW 3.5 mph - N/A   Overcast
8:57 PM 36.9 °F 32.2 °F 35.8 °F 96% 29.65 in 10.0 mi WSW 5.8 mph - N/A   Mostly Cloudy
9:17 PM 36.5 °F 31.0 °F 35.8 °F 97% 29.65 in 10.0 mi WSW 6.9 mph - N/A   Mostly Cloudy
9:37 PM 36.5 °F 31.8 °F 35.8 °F 97% 29.65 in 10.0 mi WSW 5.8 mph - N/A   Overcast
9:57 PM 36.7 °F 32.9 °F 36.0 °F 97% 29.65 in 10.0 mi WSW 4.6 mph - N/A   Overcast
10:17 PM 36.5 °F 31.8 °F 36.0 °F 98% 29.65 in 10.0 mi SW 5.8 mph - N/A   Overcast
10:37 PM 36.5 °F 31.8 °F 36.0 °F 98% 29.65 in 10.0 mi SW 5.8 mph - N/A   Overcast
10:57 PM 36.5 °F 32.7 °F 35.8 °F 97% 29.65 in 10.0 mi SW 4.6 mph - N/A   Overcast
11:17 PM 36.5 °F 31.8 °F 35.8 °F 97% 29.65 in 10.0 mi SW 5.8 mph - N/A   Overcast
11:37 PM 36.7 °F 32.0 °F 36.0 °F 97% 29.64 in 10.0 mi SW 5.8 mph - N/A   Overcast
11:56 PM 36.5 °F 32.7 °F 36.0 °F 98% 29.63 in 10.0 mi WSW 4.6 mph - N/A   Overcast